Dallas/Ft Worth, TX

10:25 AM CDT on July 20, 2017 (GMT -0500)
Dallas-Fort Worth International

Weather History for KDFW - June, 2013

Change the Weather History Date:

Sunday, June 2, 2013

  Actual Average Record
Temperature  
Mean Temperature 74 °F 78 °F  
Max Temperature 83 °F 88 °F 104 °F (1910)
Min Temperature 65 °F 69 °F 52 °F (1919)
Degree Days  
Heating Degree Days 0 0  
Month to date heating degree days 0 0  
Since 1 June heating degree days 0 0  
Since 1 July heating degree days 2045 2284  
Cooling Degree Days 9 14  
Month to date cooling degree days 25 27  
Year to date cooling degree days 414 449  
Since 1 June cooling degree days 25 27  
Growing Degree Days 23 (Base 50)    
Moisture  
Dew Point 54 °F    
Average Humidity 53    
Maximum Humidity 78    
Minimum Humidity 28    
Precipitation  
Precipitation 0.00 in 0.15 in 2.50 in (1928)
Month to date precipitation T 0.30  
Year to date precipitation 13.16 16.55  
Sea Level Pressure  
Sea Level Pressure 29.98 in    
Wind  
Wind Speed 10 mph (North)    
Max Wind Speed 17 mph    
Max Gust Speed 22 mph    
Visibility 10 miles    
Events      
T = Trace of Precipitation, MM = Missing Value Source: NWS Daily Summary

Daily Weather History Graph

Daily Weather History Graph

Search for Another Location

Airport or City:

Trip Planner

Search our weather history database for the weather conditions in past years. The results will help you decide how hot, cold, wet, or windy it might be!

Date:

Astronomy

Jun. 02, 2013 Rise Set
Actual Time 6:20 AM CDT 8:32 PM CDT
Civil Twilight 5:52 AM CDT 9:00 PM CDT
Nautical Twilight 5:17 AM CDT 9:35 PM CDT
Astronomical Twilight 4:40 AM CDT 10:12 PM CDT
Moon 2:31 AM CDT (6/2) 3:19 PM CDT (6/2)
Length of Visible Light 15h 08m
Length of Day
14h 11m
Waning Crescent, 30% of the Moon is Illuminated
Jun 2
Waning Crescent
Jun 8
New
Jun 16
First Quarter
Jun 23
Full
Jun 29
Last Quarter

Hourly Weather History & Observations

Time (CDT) Temp. Heat Index Dew Point Humidity Pressure Visibility Wind Dir Wind Speed Gust Speed Precip Events Conditions
12:53 AM 73.9 °F - 62.1 °F 66% 29.94 in 10.0 mi NNE 11.5 mph - N/A   Mostly Cloudy
1:53 AM 73.0 °F - 61.0 °F 66% 29.95 in 10.0 mi NNE 9.2 mph - N/A   Mostly Cloudy
2:53 AM 73.0 °F - 57.9 °F 59% 29.97 in 10.0 mi NNE 12.7 mph - N/A   Mostly Cloudy
3:53 AM 71.6 °F - 57.2 °F 60% 29.99 in 10.0 mi NE 9.2 mph - N/A   Mostly Cloudy
4:53 AM 66.0 °F - 57.0 °F 73% 30.00 in 10.0 mi NNE 8.1 mph - N/A   Scattered Clouds
5:53 AM 66.0 °F - 57.0 °F 73% 29.98 in 10.0 mi North 9.2 mph - N/A   Mostly Cloudy
6:53 AM 64.9 °F - 57.9 °F 78% 30.02 in 10.0 mi North 6.9 mph - N/A   Mostly Cloudy
7:53 AM 69.1 °F - 59.0 °F 70% 30.04 in 10.0 mi North 5.8 mph - N/A   Scattered Clouds
8:53 AM 72.0 °F - 57.9 °F 61% 30.05 in 10.0 mi NNE 11.5 mph - N/A   Partly Cloudy
9:53 AM 73.9 °F - 57.0 °F 55% 30.06 in 10.0 mi North 10.4 mph - N/A   Scattered Clouds
10:53 AM 75.9 °F - 55.9 °F 50% 30.06 in 10.0 mi North 13.8 mph - N/A   Scattered Clouds
11:53 AM 78.1 °F - 55.9 °F 46% 30.06 in 10.0 mi North 12.7 mph 19.6 mph N/A   Scattered Clouds
12:53 PM 79.0 °F - 52.0 °F 39% 30.04 in 10.0 mi NNE 9.2 mph 18.4 mph N/A   Scattered Clouds
1:53 PM 80.1 °F 79.9 °F 53.1 °F 39% 30.01 in 10.0 mi NW 8.1 mph 18.4 mph N/A   Scattered Clouds
2:53 PM 82.0 °F - 48.9 °F 31% 30.00 in 10.0 mi NW 9.2 mph - N/A   Scattered Clouds
3:53 PM 82.0 °F - 48.9 °F 31% 29.96 in 10.0 mi NNW 11.5 mph - N/A   Partly Cloudy
4:53 PM 82.9 °F - 46.9 °F 28% 29.94 in 10.0 mi NNW 13.8 mph - N/A   Partly Cloudy
5:53 PM 82.0 °F - 46.9 °F 29% 29.93 in 10.0 mi North 8.1 mph - N/A   Partly Cloudy
6:53 PM 80.1 °F - 48.9 °F 34% 29.93 in 10.0 mi North 12.7 mph - N/A   Partly Cloudy
7:53 PM 77.0 °F - 48.9 °F 37% 29.93 in 10.0 mi NNE 11.5 mph - N/A   Partly Cloudy
8:53 PM 72.0 °F - 51.1 °F 48% 29.93 in 10.0 mi NNE 6.9 mph - N/A   Partly Cloudy
9:53 PM 70.0 °F - 53.1 °F 55% 29.93 in 10.0 mi NNE 6.9 mph - N/A   Clear
10:53 PM 69.1 °F - 53.1 °F 57% 29.93 in 10.0 mi ENE 8.1 mph - N/A   Clear
11:53 PM 66.9 °F - 55.0 °F 66% 29.95 in 10.0 mi ENE 6.9 mph - N/A   Clear